Погода в Нахчиване

Погода в Нахчиване : погода сейчас, прогноз погоды и архив. Всё, что Вы хотите узнать о погоде в Нахчиване!

Поиск расширенной информации на нашем сайте:

Другие новости

Новости СМИ2

Главная страница сайта

Новости сайта

03.07.2017

Напоминаем, что на нашем специализированном сайте Метеоцентр.Азия вы можете получить высокодетализированные автоматические прогнозы погоды по пунктам России, СНГ и мира в авиационном формате (включающие направление и скорость ветра, видимость, явления погоды, количество и форму облачности, нижнюю и верхнюю границу облачности).


Погода в Нахчиване - сегодня

Время (UTC), дата Ветер
(°,м/с) 
Видим.   Явления Облачность Т
(°С)
Тd
(°С)
f(%) Тe
(°С)
Pmin
(гПа)
dP
(гПа)
Po
(мм)
O2
(г/м3)
Тmin Tmax R s Состояние
почвы
00 19.08.17 140 (ЮВ) н/о    3/0 средняя 
[Ac trans]
+23 +15.4 62 +35  1009.5  685  251           
03 19.08.17 100 (В) 20000 м    5/0 средняя 
[Ac trans]
+18.8 +13.1 69 +28  1013.2  1.4  686  256           
06 19.08.17 тихо ()   20000 м    3/0 средняя 
[Ac trans]
+28 +14.4 43 +38  1010.4  0.9  687  248           
09 19.08.17 120 (ЮВ) 20000 м    3/3 1000 м 
[Cu hum]
+22 +14.1 61 +32  1008.6  -0.5  686  253           
12 19.08.17 120 (ЮВ) 20000 м    3/3 1000 м 
[Cu med, cong]
+35.4 +11.5 24 +41  1004.6  2.7  684  242           
15 19.08.17 120 (ЮВ) 20000 м    3/3 1000 м 
[Cu med, cong]
+33.2 +12.7 29 +40  1004.7  0.5  684  243           
21 19.08.17 120 (ЮВ) н/о    3/0 средняя 
[Ac trans]
+26.4 +9.9 35 +29  1009.8  1.4  686  250           
00 20.08.17 120 (ЮВ) н/о    3/0 средняя 
[Ac trans]
+23.4 +8.9 40 +25  1011.1  0.2  686  253           
03 20.08.17 120 (ЮВ) 20000 м    3/0 средняя 
[Ac trans]
+23 +9.8 43 +26  1011.7  0.4  686  253           
06 20.08.17 150 (ЮВ) 20000 м    ясно 
+28 +11.3 35 +33  1009.7  -0.2  686  249           
09 20.08.17 150 (ЮВ) 20000 м    3/3 1000 м 
[Cu hum]
+32.6 +11.8 28 +38  1007.2  -0.9  685  244           
12 20.08.17 180 (Ю) 20000 м    3/3 1000 м 
[Cu hum]
+35.8 +11.2 23 +41  1003.9  -2.1  684  241           
15 20.08.17 160 (Ю) 20000 м    3/3 1000 м средняя 
[Cu hum|Ac trans]
+33.2 +11.2 26 +38  1002.7  -1.8  682  243           
21 20.08.17 160 (Ю) н/о    3/0 средняя 
[Ac trans]
+26.8 +13.6 44 +36  1007  0.9  684  248           
00 21.08.17 160 (Ю) н/о    3/0 средняя 
[Ac trans]
+25.2 +13.8 49 +34  1008.5  0.8  685  250           
03 21.08.17 140 (ЮВ) 20000 м    5/0 средняя 
[Ac trans]
+20.4 +10.7 54 +24  1010.7  0.6  685  255           
09 21.08.17 200 (Ю) 20000 м    3/3 1000 м 
[Cu hum]
+32.2 +12.6 30 +39  1005.6  -1.3  684  244           
12 21.08.17 150 (ЮВ) 20000 м    4/3 1000 м средняя 
[Cu med, cong|Ac trans]
+36.4 +11.7 23 +42  1002.1  -1.8  683  240           
15 21.08.17 тихо ()   20000 м    3/3 1000 м 
[Cu med, cong]
+36.2 +12.5 24 +43  1000.3    681  240           
21 21.08.17 090 (В) н/о    3/0 средняя 
[Ac trans]
+27.6 +13.4 42 +36  1004.5  0.5  682  247           
00 22.08.17 120 (ЮВ) н/о    3/0 средняя 
[Ac trans]
+25 +10.2 39 +28  1005.7  0.3  683  250           
03 22.08.17 090 (В) 20000 м    ясно 
+17.4 +11.5 68 +23  1008.8  0.9  683  256           
09 22.08.17 тихо ()   20000 м    3/3 1000 м 
[Cu hum]
+33 +16.1 36 +46  1003.4  683  242           
12 22.08.17 180 (Ю) 20000 м    3/3 1000 м 
[Cu hum]
+38 +8.4 17 +39  998.8  -3  681  239           
15 22.08.17 тихо ()   20000 м    ясно 
+37 +13.2 24 +45  998.5  -0.5  680  239           
Время (UTC), дата Ветер
(°,м/с) 
Видим.   Явления Облачность Т
(°С)
Тd
(°С)
f(%) Тe
(°С)
Pmin
(гПа)
dP
(гПа)
Po
(мм)
O2
(г/м3)
Тmin Tmax R s Состояние
почвы

Для получения пояснительной информации подведите курсор к названию столбца.

ПОГОДА в Нахчиване - архив

Всё, что Вы хотите узнать о погоде в Нахчиване - удобно и подробно!

Выберите нужную дату (начиная с 1 января 2015* года) и нажмите кнопку "Найти".
Будут отображены архивные сводки погоды по пункту Нахчиван, начиная с указанной даты.


Отображать данные в формате CSV (для использования в таблицах Excel)


Внимание! Наш архив погоды предназначен исключительно для личного некоммерческого использования в познавательных целях. Если Вам необходимы официальные справки о состоянии погоды (для производственных, юридических, коммерческих и т.п. целей), обращайтесь в органы Росгидромета.

*Примечание: данная дата относится к архиву по метеостанциям СССР (Россия, СНГ, Балтия).
Архив по метеостанциям Зарубежной Европы и Азии (кроме Китая) хранится 10 дней, по другим регионам земного шара (Китай, Африка, Америка, Австралия, Океания) - 1 день.

Нахчиван - район местоположения метеостанции


Название, широта, долгота, высота метеостанции:
Нахчиван 39.2°ш. 45.4°д. 873 м над ур. моря [Азербайджан]

Дополнительная информация

В oтличие oт бoльшинства пoгoдных сайтoв мы публикуем пoдрoбную метеoинфoрмацию в детальнoм прoфессиoнальнoм фoрмате.

Характеристики температуры и влажнoсти вoздуха измеряются на высoте 2 м в тени вдали oт зданий и деревьев.
Скoрoсть ветра измеряется на высoте 10 м (на урoвне рoста челoвека скoрoсть ветра ниже в 1.5-2 раза). Если метеoстанция нахoдится в гoрoде или в лесу, тo скoрoсть ветра занижена на 2-4 м/с пo сравнению с oткрытым местoм. Скoрoсть ветра над акватoриями крупных рек и oзёр, а также на вершинах хoлмoв на 2-5 м/с выше, чем в oбычных услoвиях.
Атмoсфернoе давление в разных тoчках местнoсти мoжет значительнo oтличаться oт давления на метеoстанции, в зависимoсти oт услoвий рельефа (при пoдъёме на 10 м давление пoнижается примернo на 1 мм рт.ст.).